Theta_e
319 318 318 317 317 317 313 313 312 312 313 313 312 313 314 315 314 312 313 313 313 314 314 311 310 310 310 311 311 310 310 309 307 305 304 305 304 304 308 305 306 307 305 304 303 300 299 296 296 302 302 302 303 303 303 302 303 302 304 304 304 303 303
320 319 318 317 314 314 311 311 310 310 311 312 312 311 312 313 315 312 311 311 311 312 314 311 310 310 309 308 308 307 306 307 308 307 304 303 303 302 302 302 302 302 303 302 302 302 299 295 295 296 296 299 299 301 301 301 303 302 303 302 303 303 303
319 316 314 312 311 311 309 309 309 308 309 309 310 310 310 311 311 311 310 310 311 312 312 308 309 308 308 308 308 307 306 305 305 305 304 303 303 302 302 301 299 299 299 299 299 298 298 297 293 293 294 294 293 297 299 299 301 300 300 301 300 301 301
316 314 311 310 310 310 308 308 308 308 308 307 308 309 309 309 310 312 310 310 310 313 310 308 307 307 307 306 306 306 306 304 303 302 303 303 302 301 301 300 299 298 297 296 295 296 295 293 292 292 293 294 294 293 296 299 300 299 300 300 299 300 300
315 313 311 310 310 308 307 306 306 306 306 306 306 307 307 308 309 307 309 308 308 306 306 307 307 307 307 306 305 305 304 304 303 303 301 300 300 300 300 300 299 299 298 297 297 296 295 294 293 292 292 294 294 294 296 297 298 298 298 298 299 299 299
315 313 312 311 310 308 307 306 305 305 305 305 305 305 306 307 308 306 306 306 306 307 306 306 306 306 306 305 304 303 303 302 301 301 300 299 299 298 298 299 299 298 297 298 297 296 295 295 293 291 292 294 291 292 294 295 294 297 298 298 298 299 299
313 312 311 310 309 308 307 305 305 304 304 304 304 305 305 307 306 307 306 305 306 307 307 306 305 306 305 304 303 303 302 302 301 300 300 299 299 298 299 297 297 297 297 297 296 296 294 293 292 292 291 291 291 291 293 293 294 293 295 297 298 299 298
311 311 310 310 308 307 306 305 304 304 304 304 305 306 306 305 305 306 306 304 304 304 305 304 305 304 304 305 304 303 303 302 301 300 299 298 298 297 297 297 298 297 296 296 295 295 295 294 293 293 292 289 289 289 290 291 292 292 293 295 297 297 297
313 311 310 310 309 308 306 305 304 304 304 304 305 305 305 304 304 304 304 303 303 304 304 304 303 303 303 302 302 302 302 304 300 299 298 298 297 297 296 296 296 295 296 296 296 295 294 295 294 294 293 291 288 286 289 288 290 290 294 293 295 297 297
309 309 309 308 308 307 306 304 304 304 304 304 305 305 304 304 303 303 303 303 303 303 302 303 303 302 302 302 301 301 301 301 300 298 298 297 297 296 296 296 295 296 295 297 296 296 295 294 294 294 293 292 292 287 287 286 288 289 292 294 292 294 297
309 309 309 308 307 306 305 305 304 304 303 305 305 305 303 302 303 305 302 302 302 302 302 302 302 302 301 301 301 300 301 301 300 299 299 297 296 297 297 296 295 295 296 295 295 295 294 294 293 293 292 293 293 290 290 288 288 291 290 293 293 293 295
309 309 309 308 306 305 304 303 303 303 303 303 303 301 300 301 301 301 301 301 301 302 302 302 302 301 301 300 301 299 299 299 298 298 298 298 297 297 295 295 295 294 295 294 294 294 294 294 293 292 292 293 293 292 291 290 287 290 293 291 293 295 295
310 308 307 306 304 304 303 302 301 301 301 301 300 300 299 300 300 300 300 300 301 301 301 301 301 300 300 299 299 299 298 298 297 297 297 297 297 296 295 294 294 294 294 294 293 293 292 293 293 292 292 293 292 292 292 291 289 288 292 292 293 294 295
307 307 305 304 303 303 303 303 301 301 300 299 299 299 299 299 299 299 299 300 299 299 299 299 300 300 300 299 299 299 298 297 297 296 298 296 296 295 295 294 294 294 294 293 293 292 291 291 292 292 293 292 291 292 291 290 288 289 291 293 293 293 295
307 306 304 304 303 302 302 301 301 300 299 299 299 298 298 298 298 298 298 297 297 298 298 298 298 299 299 299 298 300 298 297 296 296 296 294 294 296 294 293 294 294 293 292 291 291 290 290 290 290 290 292 290 291 292 291 290 289 289 292 292 294 293
305 304 303 302 301 302 301 301 301 299 298 298 298 297 297 297 297 297 296 296 296 296 296 297 297 298 298 297 297 297 297 296 296 295 295 294 294 293 293 294 293 292 293 290 290 289 290 289 290 290 290 291 290 291 292 292 290 289 289 290 292 292 292
304 302 301 301 301 301 301 301 301 299 298 297 297 297 296 296 296 295 295 295 294 294 294 295 295 296 297 296 297 296 296 296 295 295 295 294 294 294 292 292 292 291 291 289 289 288 289 289 289 290 289 290 290 290 291 292 291 290 290 289 291 291 292
302 301 301 300 300 301 301 300 300 298 297 297 296 296 296 295 294 294 294 293 293 293 293 293 294 294 295 295 296 296 296 295 295 295 295 296 300 293 294 292 292 291 290 288 288 288 288 288 289 289 289 289 290 291 292 291 291 291 290 289 290 292 292
301 301 301 300 300 300 300 299 298 298 297 296 295 295 295 295 295 293 293 292 292 292 292 292 292 292 293 294 295 295 296 296 295 294 294 294 294 295 293 292 292 291 289 288 287 288 288 287 289 288 288 289 289 290 290 290 291 291 290 290 290 290 290
301 301 301 300 300 300 299 298 298 297 297 295 295 294 294 293 294 293 292 292 292 291 291 291 291 291 291 292 293 295 295 294 294 294 293 293 293 293 293 293 292 290 290 289 288 288 288 288 290 288 290 289 290 289 289 289 290 290 289 289 289 289 289
301 301 300 300 300 299 299 298 297 297 296 295 294 294 293 293 293 292 292 292 292 293 291 291 290 290 291 291 292 293 294 296 294 293 293 293 293 292 293 293 292 291 291 291 290 289 289 289 289 289 288 289 289 289 289 289 289 288 288 288 288 288 288
301 301 301 300 300 299 299 298 297 296 296 295 295 293 292 292 291 290 290 290 290 291 291 292 292 291 290 291 290 292 293 294 294 293 293 293 293 293 293 293 293 294 296 297 296 295 295 295 291 288 289 289 290 289 288 288 288 288 288 288 288 288 288
300 300 300 299 299 299 298 298 297 296 295 294 294 293 292 292 290 290 289 289 289 290 291 292 294 294 294 293 291 292 294 294 294 294 293 293 293 293 292 293 298 298 298 297 297 295 294 294 295 294 291 290 289 289 288 288 288 288 288 287 287 287 286
299 299 299 299 298 299 298 298 296 296 295 294 294 294 292 291 290 289 289 288 288 290 290 292 293 291 292 294 293 292 292 293 294 294 293 292 292 293 292 292 292 297 297 297 294 294 293 293 293 293 293 295 295 292 289 288 288 288 288 287 288 287 287
299 299 299 298 298 298 298 297 296 295 294 293 293 292 290 290 289 289 289 288 288 289 289 294 291 292 292 293 296 293 292 293 294 292 293 292 292 292 291 291 291 293 293 294 293 290 292 293 293 293 293 293 293 292 293 291 289 288 288 287 287 287 287
298 298 298 298 298 298 297 296 295 294 293 293 292 291 290 289 288 288 288 287 288 288 288 293 291 292 292 293 294 295 294 294 292 290 292 292 291 291 291 291 291 290 290 297 296 289 289 290 293 293 293 293 293 293 291 290 292 292 290 288 288 287 287
298 298 298 298 298 297 296 295 294 294 294 293 291 290 289 289 288 288 288 288 287 288 288 292 291 292 292 292 292 293 292 292 292 292 291 291 291 290 289 289 289 290 289 289 289 290 290 290 289 290 289 289 289 291 292 292 292 292 293 291 288 287 289
297 298 298 297 297 297 296 295 295 295 293 292 290 290 289 288 288 289 287 287 287 288 290 292 291 292 292 292 292 292 290 292 291 290 291 291 291 290 289 290 290 289 289 289 292 292 290 289 289 289 288 288 288 289 289 290 290 291 292 291 289 289 290
297 297 297 297 297 296 296 296 295 295 294 292 291 291 289 290 289 287 287 286 287 286 288 291 291 291 292 291 292 292 289 290 290 290 290 291 291 291 290 289 289 289 289 289 293 292 292 291 289 288 288 288 288 288 289 293 293 293 293 291 291 291 291
297 297 297 297 296 296 295 295 295 295 294 293 292 290 290 289 289 288 288 287 286 285 287 290 291 291 291 291 291 289 288 289 289 289 289 290 290 290 290 291 290 290 290 289 293 290 290 292 288 288 287 287 288 288 288 290 292 292 292 292 292 291 291
297 297 296 296 296 295 295 294 295 296 294 293 292 291 291 290 289 289 287 286 286 286 286 290 291 291 291 291 291 287 288 288 287 288 288 288 289 288 291 298 298 290 289 290 291 290 290 291 288 287 287 286 286 287 288 289 290 291 292 292 291 291 291
297 297 296 296 295 294 294 294 295 294 293 293 293 292 293 291 290 288 287 287 295 288 286 290 291 290 291 291 290 286 287 287 287 286 287 288 288 289 289 292 295 294 292 291 290 290 290 291 288 287 286 286 286 286 287 288 288 289 289 288 288 289 290
297 297 296 295 295 294 295 294 293 292 292 292 292 292 293 292 290 290 290 291 293 288 287 287 289 291 291 291 292 288 287 286 287 285 285 289 289 287 287 288 291 291 290 290 289 289 290 290 288 288 287 286 286 286 288 288 290 290 288 288 287 288 288
297 296 296 295 295 295 294 294 293 292 291 291 291 291 292 291 291 291 292 292 290 287 288 286 289 290 291 291 291 290 285 286 284 285 284 286 284 285 287 287 287 291 290 290 289 290 290 290 290 290 288 287 287 289 290 288 289 292 287 288 288 288 288
297 297 296 296 295 294 294 294 293 292 291 291 291 291 291 291 291 291 291 291 291 290 293 295 287 290 290 291 290 291 288 288 286 286 285 284 284 285 285 286 287 290 290 289 289 290 290 290 290 291 289 289 289 289 289 290 288 287 287 287 286 286 287
297 298 297 296 295 294 294 293 293 293 292 291 291 290 290 291 290 289 289 291 292 292 291 294 293 289 290 290 290 290 290 288 290 290 285 285 285 286 285 286 288 292 289 289 289 290 290 290 291 289 289 289 289 289 290 287 287 286 286 285 286 285 286
297 297 296 296 295 294 293 293 294 293 293 292 291 291 291 291 290 290 291 291 292 291 291 290 292 292 289 289 290 289 289 289 289 288 288 287 286 285 286 286 289 289 289 289 289 289 289 290 289 289 289 289 289 289 288 287 285 285 285 285 284 284 284
Wind_Speed
7 7 6 5 5 6 7 6 6 6 6 6 6 7 7 6 6 6 6 6 7 7 7 7 7 5 6 7 7 7 7 6 6 7 7 7 7 5 6 8 8 8 9 9 7 3 2 8 4 4 6 9 7 7 9 11 10 10 9 10 11 11 10
7 6 5 5 6 6 8 6 7 6 6 7 7 7 7 6 6 6 6 7 8 7 6 6 6 7 7 7 7 8 7 8 7 6 8 8 7 7 6 8 8 8 8 8 9 7 6 5 7 9 11 5 5 5 8 10 8 9 9 10 11 11 10
6 6 5 6 6 6 8 7 6 6 6 7 7 7 7 6 6 7 7 8 7 7 6 6 6 7 6 6 6 6 8 9 8 8 9 7 7 7 8 7 8 6 7 7 7 8 4 5 5 10 10 13 11 8 7 10 8 8 9 8 10 9 10
7 7 7 6 6 7 8 7 6 6 6 6 6 6 6 6 7 7 7 7 6 6 6 6 6 6 6 6 7 8 10 10 8 9 9 8 8 9 9 8 8 8 7 7 6 6 5 4 7 8 9 8 8 7 6 10 7 8 8 7 9 8 10
8 6 7 7 7 9 8 7 6 6 6 6 6 6 6 6 6 7 6 6 7 6 6 5 6 6 6 7 8 8 8 9 9 9 8 10 9 9 9 8 8 7 7 7 5 5 5 5 4 5 8 10 4 3 5 6 4 8 7 9 9 7 10
6 6 6 7 7 8 7 7 6 6 6 7 6 6 6 6 6 7 7 7 6 6 6 6 6 7 7 7 8 9 9 9 8 9 9 10 9 9 8 8 7 8 8 6 6 5 5 4 5 6 5 5 6 8 5 5 5 5 6 7 9 7 10
7 6 6 8 7 8 7 7 6 6 6 6 6 6 5 5 6 5 6 6 5 5 6 6 7 6 7 7 8 8 8 8 9 10 11 10 10 9 7 8 7 7 6 6 5 6 6 6 7 7 8 6 4 7 5 5 5 5 3 7 8 6 10
7 7 7 7 8 9 7 7 6 6 6 5 6 5 6 6 6 7 6 7 6 6 7 7 7 7 6 6 6 8 8 8 9 10 10 10 9 9 8 7 6 6 6 6 6 6 6 6 5 5 6 11 8 4 9 4 5 5 8 6 7 7 10
7 7 7 6 7 8 8 7 6 6 6 5 5 6 5 6 6 7 7 7 7 7 7 7 7 6 5 6 6 7 9 7 9 10 8 8 8 8 7 5 6 6 5 5 6 6 6 5 5 5 5 5 6 9 9 7 6 6 7 11 6 6 11
8 8 8 9 9 8 8 6 6 5 5 5 6 5 6 6 6 7 7 7 7 6 7 6 6 6 6 6 7 8 9 8 8 8 7 7 6 5 6 6 6 6 5 4 5 5 5 5 5 5 4 5 4 4 7 8 8 8 9 9 9 10 11
8 8 9 9 8 8 7 5 5 6 5 5 5 5 6 7 7 7 7 6 6 6 6 6 6 6 6 7 7 8 7 7 7 6 7 6 6 5 6 6 6 6 4 5 5 5 6 5 6 6 5 5 4 4 4 7 8 5 10 9 6 10 11
7 7 7 8 7 8 6 5 5 5 5 6 7 6 7 7 7 7 6 6 6 6 6 6 6 6 6 8 7 7 7 7 7 6 5 6 5 6 6 6 5 5 4 5 5 6 6 5 6 5 5 5 5 2 3 3 6 4 5 9 10 9 11
6 7 7 8 8 7 6 6 6 6 6 7 7 7 7 7 7 7 6 6 6 6 6 5 6 6 7 7 7 7 6 7 7 6 5 4 5 5 6 5 4 5 5 5 5 6 5 5 4 5 4 4 4 3 3 3 4 8 6 7 9 10 11
7 7 8 8 7 6 6 6 6 6 7 7 7 8 7 7 7 7 7 7 7 6 6 6 5 6 7 7 6 6 5 6 6 5 5 5 4 4 5 4 4 5 4 5 5 5 5 4 4 4 4 4 5 4 3 3 4 8 6 4 7 7 10
7 7 8 7 7 6 6 6 6 7 8 6 7 8 7 6 6 7 7 7 7 7 7 7 6 6 7 7 6 4 6 6 6 5 5 4 4 3 4 4 5 5 4 4 3 4 4 4 4 4 4 4 5 6 4 3 5 6 9 8 7 7 8
7 8 8 6 7 7 7 7 8 9 8 7 7 7 7 7 7 8 8 7 7 7 7 7 6 6 5 6 6 5 5 5 6 6 5 4 3 3 4 4 4 3 3 4 3 3 3 3 3 3 4 3 4 5 6 4 4 6 8 9 8 9 8
8 7 7 6 7 6 7 7 8 9 8 7 8 6 7 7 7 8 8 8 7 6 7 6 6 5 5 4 6 5 4 5 5 5 4 4 4 4 4 4 3 2 2 3 3 3 3 3 3 4 4 4 4 5 5 5 5 4 5 8 9 9 9
8 7 7 7 7 7 7 8 8 8 8 8 7 7 7 6 7 7 7 7 6 7 5 5 6 6 5 4 3 3 4 4 5 5 4 4 4 4 3 3 2 2 2 3 3 4 3 4 4 4 5 5 5 5 5 5 6 5 6 9 10 8 8
7 7 7 6 7 7 8 8 8 8 9 9 8 7 7 6 6 7 6 6 6 5 5 5 5 4 4 4 4 4 3 4 4 5 5 4 3 2 3 3 2 2 3 3 3 4 4 4 4 5 5 5 5 5 6 6 6 6 6 8 9 10 7
7 6 6 6 7 8 8 8 9 9 8 9 9 8 6 7 5 6 6 6 6 5 5 5 5 4 4 4 3 4 3 4 4 4 4 4 3 3 3 3 3 3 2 1 3 4 4 5 4 5 4 5 5 5 6 6 6 7 7 8 7 7 9
6 6 6 6 7 8 8 8 9 8 8 9 8 7 7 7 5 5 5 6 4 4 5 5 4 4 3 3 3 3 3 2 3 4 4 3 2 3 3 3 3 3 2 1 3 3 3 4 4 6 5 4 5 6 6 7 7 7 7 7 8 9 7
5 5 6 7 7 8 8 8 8 8 8 8 7 6 6 6 7 7 5 5 5 4 6 5 3 3 3 3 3 3 2 1 3 4 3 2 1 1 1 2 3 2 3 6 5 5 5 5 3 5 7 4 5 6 6 7 7 8 8 8 9 8 9
5 6 6 7 7 8 8 8 9 9 8 8 7 6 6 5 6 6 6 5 4 5 4 3 4 5 4 1 2 2 1 1 3 4 4 2 1 1 2 2 2 5 3 4 4 6 8 9 9 6 5 5 5 6 6 7 8 8 8 9 9 10 10
6 7 6 7 7 9 8 8 9 9 8 7 7 5 5 6 5 5 5 5 5 4 3 3 5 3 3 2 0 0 2 1 1 4 4 4 2 1 2 1 1 1 2 4 4 7 9 10 11 12 13 12 10 7 6 8 8 8 8 8 9 9 9
7 7 7 7 8 9 8 9 9 8 8 7 6 5 6 5 5 4 5 5 5 4 3 4 3 2 4 5 3 1 0 1 2 2 5 3 2 3 2 1 1 1 2 3 3 5 8 11 12 13 13 13 14 14 11 7 7 8 9 9 10 10 10
7 7 6 7 8 9 9 9 9 8 8 6 6 6 5 5 5 4 5 5 4 3 3 5 6 9 9 9 7 6 4 4 4 2 0 1 3 3 2 1 1 2 3 6 5 4 6 8 11 13 13 12 13 14 14 15 12 8 7 7 8 11 10
7 7 6 7 8 9 9 8 7 7 7 6 6 5 5 5 4 4 4 5 4 3 4 5 7 9 9 9 9 8 4 4 4 4 3 1 1 2 2 2 2 4 4 4 4 5 7 8 8 8 8 8 8 10 12 13 13 13 10 7 7 10 12
8 7 7 8 8 8 8 7 8 7 7 7 6 6 5 5 4 4 4 4 4 4 3 5 6 8 8 8 8 7 4 3 4 4 4 3 2 1 1 1 1 4 5 6 5 6 7 8 7 7 7 8 8 8 8 8 8 8 8 8 8 9 11
8 8 8 8 8 8 7 8 8 7 7 6 5 4 4 4 4 4 3 4 5 4 3 4 7 9 9 8 7 4 4 4 4 4 4 4 3 1 2 2 3 5 5 5 9 13 10 7 5 6 8 8 8 8 7 8 10 11 10 9 9 9 10
9 9 8 9 8 8 8 8 7 7 7 6 6 5 5 4 4 4 4 4 5 4 3 3 8 9 8 7 6 4 4 4 4 4 4 4 4 3 3 3 3 5 5 6 11 14 12 9 5 6 7 8 8 7 9 8 11 14 15 16 16 17 18
10 9 9 10 9 7 6 6 7 7 8 8 7 6 5 5 4 4 4 4 4 5 3 3 7 8 7 5 4 4 3 5 4 3 3 3 3 3 4 8 7 4 5 7 12 14 12 7 6 6 6 8 9 9 9 9 8 9 13 15 16 17 17
10 10 10 9 9 8 8 8 6 6 7 7 7 6 6 6 4 3 4 4 6 5 4 2 4 5 5 4 3 3 4 4 5 4 4 4 4 4 5 5 8 8 6 9 14 13 13 7 5 5 5 5 8 9 10 10 9 11 11 11 11 12 12
10 10 10 9 8 8 6 7 7 7 6 7 7 6 6 6 6 4 4 4 3 4 4 2 1 4 3 3 4 3 3 6 4 4 3 2 4 5 4 5 7 9 11 13 14 13 13 12 5 5 4 6 7 10 9 8 10 10 10 9 10 10 11
11 9 9 10 9 7 7 8 7 7 7 7 7 7 6 5 5 5 5 4 4 3 3 4 2 3 3 3 4 5 3 3 3 2 1 2 2 4 6 6 6 8 12 13 13 13 12 13 10 5 5 5 5 8 9 7 10 11 8 9 10 10 10
9 9 8 9 9 8 7 8 7 7 7 7 7 7 6 6 6 5 4 4 4 5 4 5 3 3 4 4 4 4 4 2 2 1 2 2 3 3 4 5 6 8 12 13 13 12 13 11 12 6 8 11 13 14 9 7 7 7 8 8 9 9 10
9 8 9 9 10 10 8 8 7 7 8 7 8 8 7 6 5 5 4 5 4 4 4 3 5 3 5 6 6 5 5 4 2 1 2 2 3 4 4 5 6 10 12 12 12 12 11 11 8 7 12 13 12 13 9 7 7 8 8 8 9 9 10
9 9 10 9 9 10 9 8 8 8 8 8 7 8 7 6 5 5 6 5 4 4 3 4 4 5 4 7 7 7 6 4 4 2 1 0 2 3 5 5 7 11 11 11 12 11 11 9 7 10 11 12 12 9 7 7 7 8 7 8 9 9 10
Wind_Direction
121 132 135 125 116 119 102 99 94 83 73 68 69 61 60 60 62 60 62 66 67 64 64 62 65 61 63 54 54 52 52 50 51 60 55 33 56 24 24 36 36 40 35 39 29 26 300 318 324 25 50 13 7 14 12 358 0 2 9 12 13 20 14
122 125 122 116 112 107 96 87 84 78 70 65 62 64 59 57 59 63 61 63 64 60 63 60 56 58 62 63 55 52 53 50 50 57 63 52 48 41 36 30 35 33 29 32 18 15 26 336 316 356 343 8 1 7 15 356 359 1 16 14 10 14 10
121 115 118 116 109 104 92 84 76 71 67 62 56 57 59 54 57 57 60 63 64 67 66 65 66 63 62 63 59 60 59 62 53 60 67 65 61 56 55 52 48 27 36 26 25 12 11 46 343 333 343 345 352 352 356 356 359 355 19 6 7 8 10
133 131 123 113 110 95 89 81 76 71 65 64 62 56 57 56 57 59 64 68 67 66 65 62 65 70 64 64 61 60 60 63 63 65 65 63 64 60 56 55 58 54 52 51 28 20 30 6 347 343 336 346 325 337 5 347 350 348 16 6 4 9 9
137 134 128 121 108 99 93 87 78 72 64 64 61 61 52 53 61 61 63 67 69 67 65 68 66 66 68 65 62 63 63 65 66 66 64 61 58 59 54 50 53 53 52 50 37 33 29 20 10 334 338 333 315 343 332 340 338 339 16 2 1 6 9
125 127 122 111 108 102 98 90 83 79 73 69 62 69 55 57 63 64 64 67 67 64 68 66 65 66 68 65 67 66 68 69 69 70 66 60 59 59 59 54 56 54 52 41 39 35 22 11 14 358 339 330 314 319 339 352 352 328 13 2 357 7 3
114 111 107 109 106 102 100 96 93 97 91 90 84 76 73 69 66 71 73 70 65 62 64 65 65 67 69 72 71 73 74 73 72 69 67 65 61 60 61 63 55 55 53 41 35 34 26 18 13 8 336 335 303 318 321 346 342 345 357 7 355 5 360
106 102 105 111 112 109 105 104 102 98 97 97 93 87 72 72 70 68 69 67 62 61 59 60 64 67 70 71 74 79 78 76 74 72 69 68 65 63 61 63 65 56 51 44 40 32 25 25 15 354 2 354 342 330 341 338 334 20 345 353 350 356 357
108 104 105 107 108 112 112 111 109 103 101 100 90 83 73 76 73 72 69 68 67 63 61 64 67 71 76 78 74 75 78 76 79 76 74 73 71 69 70 65 64 55 45 43 41 34 26 15 12 7 7 18 11 336 334 333 358 340 8 352 344 11 347
109 113 117 116 114 109 107 109 111 110 102 96 96 91 85 77 76 75 71 66 63 65 65 66 72 76 75 76 76 75 76 77 81 83 81 77 76 73 68 63 65 56 41 35 35 33 22 16 14 5 15 16 7 349 344 327 338 344 345 2 341 336 344
113 115 117 116 114 107 101 103 102 98 103 101 94 90 83 77 70 70 71 68 65 64 68 67 71 74 75 73 74 74 81 83 84 83 82 84 76 72 69 60 52 49 34 35 32 22 21 19 12 7 1 355 12 24 341 331 317 349 330 334 338 327 333
110 111 110 109 105 102 105 105 102 106 91 87 89 85 80 75 74 69 70 69 66 68 67 69 71 70 73 74 71 75 75 80 84 82 83 86 83 77 68 62 51 49 34 37 28 21 14 15 8 3 356 359 353 14 336 331 317 319 339 321 325 326 325
111 113 113 107 100 103 108 106 105 94 97 92 90 87 82 82 76 73 66 65 61 57 61 62 66 69 69 72 79 77 75 82 82 84 79 71 84 81 77 67 56 52 37 38 30 20 15 5 5 360 355 348 335 331 306 294 294 303 316 304 309 315 323
110 112 106 103 105 106 106 102 98 104 92 88 93 87 86 84 81 79 73 65 64 60 55 47 47 66 69 75 75 80 74 73 76 74 77 65 64 78 78 72 55 48 49 46 22 20 15 5 357 355 344 340 332 319 321 303 296 302 298 287 294 307 314
113 112 108 108 107 108 104 101 107 94 91 91 92 91 89 86 82 78 75 69 64 61 58 54 47 65 80 79 73 74 78 69 72 73 74 73 65 70 76 68 48 49 50 50 25 22 12 4 356 346 344 338 322 319 315 304 303 302 305 309 306 304 305
116 112 113 113 113 113 109 107 103 100 98 94 86 88 89 87 83 81 75 67 64 60 56 57 53 59 69 87 86 82 81 81 79 81 85 86 80 68 61 56 47 53 42 44 19 7 358 1 349 349 337 328 326 317 316 311 308 305 303 303 301 304 307
118 119 118 123 121 120 113 107 106 101 101 96 91 82 82 84 82 79 77 69 64 63 57 55 56 54 54 67 98 99 96 89 81 85 95 91 78 72 74 64 52 54 47 47 6 356 345 348 355 345 340 331 325 319 310 314 304 284 293 300 305 302 304
124 124 125 124 121 112 108 110 106 107 102 95 93 90 79 77 81 77 77 78 73 65 61 59 60 51 42 40 45 71 93 93 92 92 93 94 90 96 86 101 104 73 55 43 0 1 341 358 350 352 346 331 325 312 311 308 303 294 292 296 296 294 297
129 132 132 126 118 113 113 110 107 103 102 98 91 86 89 78 85 87 84 82 80 76 66 63 62 57 45 36 45 45 62 111 112 104 98 94 108 115 124 127 129 110 71 48 5 346 351 351 344 348 342 332 321 314 311 309 305 303 297 290 296 300 301
136 138 135 129 120 116 115 113 108 106 103 102 101 98 92 92 81 88 87 82 77 77 71 64 60 50 44 41 47 55 56 105 114 110 106 112 119 141 145 145 135 121 102 68 16 351 346 346 343 337 334 323 316 315 312 308 308 307 306 304 299 292 300
136 135 132 127 121 119 117 112 109 108 105 102 104 106 108 103 94 85 83 81 77 77 75 65 54 43 42 36 38 52 54 76 125 113 112 116 126 137 147 149 144 146 134 70 19 345 347 338 335 335 328 323 319 319 314 311 314 315 315 314 309 310 308
131 129 128 124 121 121 119 116 113 110 106 106 106 108 106 102 101 89 77 78 74 65 68 58 50 35 26 30 32 41 60 83 148 126 127 137 137 97 63 104 132 168 38 25 11 353 339 335 333 325 319 321 315 318 312 315 318 320 319 318 315 314 314
132 129 128 127 124 123 121 119 115 111 110 111 113 111 104 97 93 97 93 80 72 65 61 52 33 23 10 21 20 8 33 118 147 143 150 151 137 22 49 60 81 68 16 353 351 347 344 339 336 328 307 313 313 316 317 321 323 323 321 322 322 321 323
136 134 132 123 121 123 123 119 115 114 115 115 115 113 104 100 94 92 94 92 79 69 55 41 22 13 22 24 141 51 17 359 116 160 151 161 181 138 86 59 70 354 335 332 342 350 345 343 339 336 333 330 327 324 323 325 320 321 321 320 317 320 318
138 137 131 126 123 125 123 121 121 120 118 114 112 109 105 105 103 97 92 85 78 71 56 27 25 76 71 59 68 82 6 357 40 154 155 167 168 132 131 125 345 296 296 319 1 352 340 339 340 338 336 334 331 329 328 322 317 320 323 321 320 318 318
142 138 136 129 126 127 127 125 125 124 121 121 116 113 119 109 103 100 94 89 76 59 54 23 37 52 49 51 58 80 73 57 61 47 12 170 145 133 151 139 3 318 291 335 354 347 342 337 338 337 338 338 332 332 330 324 320 309 304 309 312 316 317
143 143 138 132 129 130 131 133 132 125 121 119 119 118 115 112 108 98 97 96 90 71 55 27 52 63 63 63 65 71 72 72 66 63 58 48 57 132 175 133 32 347 327 344 340 355 344 342 338 338 336 335 330 326 325 323 321 320 320 312 311 311 311
144 144 142 136 132 133 133 134 131 129 128 133 132 133 131 119 114 106 102 101 93 72 42 33 67 76 77 75 73 77 74 77 67 55 44 44 78 153 229 215 21 353 339 337 325 357 353 339 335 333 335 333 330 320 317 318 325 325 322 319 311 303 305
147 146 145 139 135 135 137 141 139 138 134 133 127 118 114 111 114 114 111 102 92 78 44 47 78 78 76 75 78 72 71 73 70 57 44 31 33 14 262 264 12 356 344 332 332 347 354 338 335 342 337 330 326 324 317 313 315 318 318 315 311 307 305
151 151 148 144 142 143 141 139 138 137 134 138 136 140 146 138 134 127 125 117 105 97 73 64 76 74 68 64 71 69 74 71 60 49 35 27 26 6 330 282 324 350 340 332 336 341 347 343 348 343 335 329 326 328 328 331 334 328 325 321 318 317 317
155 154 152 151 149 146 140 134 139 142 142 145 146 155 150 138 143 138 131 133 131 117 108 82 86 81 78 74 80 89 87 87 67 44 17 16 10 1 345 350 348 350 340 331 334 335 343 355 345 335 336 334 335 338 336 337 331 328 324 323 322 324 323
157 156 153 153 150 150 152 150 144 133 136 139 147 149 148 147 154 155 150 152 149 133 139 119 104 102 108 121 117 104 97 83 66 30 22 4 350 359 340 333 339 342 343 333 336 338 338 352 339 336 328 332 337 340 337 331 329 333 336 335 331 332 330
159 157 154 150 149 151 149 138 141 136 136 138 145 151 152 155 161 177 179 171 162 156 143 154 145 139 135 120 121 110 96 78 62 36 7 4 349 338 338 332 335 335 342 341 339 337 333 339 348 327 337 344 339 338 327 327 330 335 328 328 322 326 324
158 157 154 153 152 151 149 147 145 142 144 142 141 150 155 164 166 173 180 185 173 192 171 158 188 162 136 125 118 111 98 105 114 85 20 348 339 327 327 326 319 328 341 338 336 334 334 332 343 339 345 344 328 315 326 334 329 329 328 327 328 327 329
155 153 151 148 151 152 153 147 150 150 149 150 155 163 168 170 174 178 184 185 188 192 203 179 175 163 142 126 122 118 103 120 154 122 48 4 335 315 307 307 312 323 334 336 331 332 332 336 341 359 341 338 339 345 341 327 325 329 331 332 331 333 335
156 154 155 156 154 157 157 154 156 155 157 161 163 170 176 178 175 179 180 195 200 195 207 208 183 158 142 118 112 104 107 110 172 134 100 25 316 294 295 306 308 328 333 329 330 332 332 339 355 349 345 352 347 342 340 340 336 336 336 335 337 338 335
157 158 158 158 159 160 161 160 161 166 169 168 173 176 186 179 175 175 181 194 203 215 208 209 206 169 143 122 113 115 112 120 127 130 130 215 271 285 309 322 318 317 326 334 332 332 331 340 353 351 355 353 349 344 344 343 342 338 333 338 339 337 335